Flag for Canada Weather past 2 weeks in Thunder Bay, Ontario, Canada

Now
57 °F

Mostly cloudy.


Feels Like: 57 °F
Forecast: 57 / 77 °F
Wind: 3 mph from Northeast

Location: Thunder Bay

Current Time: Jul 2, 2015 at 11:30:03 PM

Latest Report: Jul 2, 2015 at 11:00 PM


Visibility: 15 mi

Pressure: 29.88 "Hg

Humidity: 94%

Dew point: 55 °F

Location of Thunder BayLocation

Historic Weather in Thunder Bay — Graph

°F

Thunder Bay temperature yesterday

Maximum temperature yesterday: 68 °F (at 1:00 PM)
Minimum temperature yesterday: 39 °F (at 6:00 AM)
Average temperature yesterday: 55 °F

Past Weeks' High & Low Weather Summary

 TemperatureHumidityPressure
High81 °F (Jun 26, 4:00 PM)100% (Jun 18, 5:00 AM)30.19 "Hg (Jun 18, 5:00 AM)
Low39 °F (Jun 19, 4:00 AM)32% (Jun 18, 2:00 PM)29.59 "Hg (Jun 22, 5:00 PM)
Average58 °F80%29.93 "Hg
* Reported Jun 17 10:00 PM — Jul 2 10:00 PM, Thunder Bay, Weather by CustomWeather, © 2015

Note: Actual official high and low records may vary slightly from our data, if they occured in-between our weather recording intervals... More about our weather records

Advertising

Thunder Bay weather history for previous 24 hours

 ConditionsComfort  
Time TempWeatherWind HumidityBarometerVisibility
10:00 PM
Thu, Jul 2
59 °FOvercast.3 mph88%29.89 "Hg20 mi
9:00 PM59 °FMore clouds than sun.6 mph88%29.90 "Hg20 mi
8:00 PM59 °FMostly cloudy.6 mph88%29.90 "Hg20 mi
7:00 PM64 °FMostly cloudy.7 mph78%29.91 "Hg20 mi
6:00 PM64 °FMostly cloudy.2 mph83%29.93 "Hg20 mi
5:00 PM64 °FMore clouds than sun.3 mph83%29.94 "Hg20 mi
4:00 PM66 °FThunderstorms. Cloudy.9 mph73%29.94 "Hg20 mi
3:00 PM73 °FThunderstorms. Cloudy.8 mph61%29.94 "Hg20 mi
2:00 PM75 °FMore clouds than sun.8 mph57%29.95 "Hg20 mi
1:00 PM73 °FOvercast.7 mph61%29.96 "Hg20 mi
12:00 PM70 °FOvercast.2 mph64%29.98 "Hg20 mi
11:00 AM66 °FHigh level clouds.5 mph68%29.99 "Hg20 mi
10:00 AM61 °FMore clouds than sun.2 mph77%30.00 "Hg20 mi
9:00 AM57 °FMostly cloudy.2 mph88%30.01 "Hg20 mi
8:00 AM54 °FPartly sunny.3 mph94%30.01 "Hg20 mi
7:00 AM48 °FScattered clouds.2 mph94%30.01 "Hg20 mi
6:00 AM46 °FPassing clouds.2 mph100%29.99 "Hg20 mi
5:00 AM48 °FClear.No wind100%29.99 "Hg20 mi
4:00 AM50 °FPassing clouds.3 mph94%29.99 "Hg15 mi
3:00 AM50 °FPassing clouds.3 mph100%30.00 "Hg15 mi
2:00 AM52 °FPassing clouds.2 mph100%29.99 "Hg15 mi
1:00 AM54 °FPassing clouds.2 mph100%30.00 "Hg15 mi
12:00 AM55 °FMostly cloudy.3 mph94%30.00 "Hg15 mi
11:00 PM
Wed, Jul 1
57 °FPartly sunny.3 mph82%30.00 "Hg15 mi
Weather by CustomWeather, © 2015

See weather overviewHow to use our weather pages